Location: Newark
(33.6333°S, 78.8500°W)
Time: 08:40:37
(UTC+00:00)

deb Explorer IX - All Passes

Search period start: 24 September 2019 00:00
Search period end: 04 October 2019 00:00
Orbit: 544 x 1107 km, 38.8° (Epoch: 23 September)

Date Brightness Start Highest point End Pass type
(mag) Time Alt. Az. Time Alt. Az. Time Alt. Az.
24 Sep - 00:17:47 10° W 00:22:36 19° NW 00:27:29 10° N visible
24 Sep - 15:00:19 10° NNW 15:04:05 25° NE 15:08:20 10° E daylight
24 Sep - 16:45:38 10° WNW 16:50:38 88° SSW 16:56:37 10° ESE daylight
24 Sep - 18:32:45 10° W 18:38:13 53° S 18:44:37 10° ESE daylight
24 Sep - 20:19:56 10° WSW 20:26:05 67° SSE 20:33:07 10° E daylight
24 Sep - 22:07:04 10° WSW 22:13:38 59° NNW 22:20:47 10° NE daylight
24 Sep - 23:55:54 10° W 00:00:32 19° NW 00:05:17 10° N visible
25 Sep - 14:38:32 10° NNW 14:42:13 25° NE 14:46:19 10° E daylight
25 Sep - 16:23:53 10° WNW 16:28:45 86° SSW 16:34:32 10° ESE daylight
25 Sep - 18:11:00 10° W 18:16:17 52° S 18:22:30 10° ESE daylight
25 Sep - 19:58:07 10° WSW 20:04:06 67° SSE 20:11:01 10° E daylight
25 Sep - 21:45:11 10° WSW 21:51:35 58° NNW 21:58:40 10° NE daylight
25 Sep - 23:34:02 10° W 23:38:30 18° NW 23:43:06 10° N visible
26 Sep - 14:16:46 10° NNW 14:20:21 25° NE 14:24:21 10° E daylight
26 Sep - 16:02:09 10° WNW 16:06:53 85° SSW 16:12:29 10° ESE daylight
26 Sep - 17:49:15 10° WSW 17:54:23 51° S 18:00:25 10° ESE daylight
26 Sep - 19:36:18 10° WSW 19:42:08 67° SSE 19:48:54 10° E daylight
26 Sep - 21:23:19 10° WSW 21:29:33 56° NNW 21:36:32 10° NE daylight
26 Sep - 23:12:14 10° WNW 23:16:28 17° NW 23:20:52 10° N daylight
27 Sep - 13:54:59 10° NNW 13:58:31 25° NE 14:02:23 10° E daylight
27 Sep - 15:40:26 10° WNW 15:45:02 83° SSW 15:50:27 10° ESE daylight
27 Sep - 17:27:31 10° WSW 17:32:29 50° S 17:38:20 10° ESE daylight
27 Sep - 19:14:31 10° WSW 19:20:10 67° SSE 19:26:48 10° E daylight
27 Sep - 21:01:29 10° WSW 21:07:33 54° NNW 21:14:24 10° NE daylight
27 Sep - 22:50:27 10° WNW 22:54:27 16° NW 22:58:37 10° N daylight
28 Sep - 13:33:13 10° NNW 13:36:41 25° NE 13:40:27 10° E daylight
28 Sep - 15:18:43 10° WNW 15:23:12 81° SSW 15:28:26 10° ESE daylight
28 Sep - 17:05:48 10° WSW 17:10:37 49° S 17:16:16 10° ESE daylight
28 Sep - 18:52:45 10° WSW 18:58:15 67° SSE 19:04:42 10° E daylight
28 Sep - 20:39:41 10° WSW 20:45:34 53° NNW 20:52:16 10° NE daylight
28 Sep - 22:28:44 10° WNW 22:32:26 15° NW 22:36:20 10° N daylight
29 Sep - 13:11:26 10° NNW 13:14:52 25° NE 13:18:34 10° E daylight
29 Sep - 14:57:00 10° WNW 15:01:23 80° SSW 15:06:27 10° ESE daylight
29 Sep - 16:44:05 10° WSW 16:48:45 47° S 16:54:13 10° ESE daylight
29 Sep - 18:31:00 10° WSW 18:36:20 67° SSE 18:42:37 10° E daylight
29 Sep - 20:17:53 10° WSW 20:23:36 51° NNW 20:30:08 10° NE daylight
29 Sep - 22:07:03 10° WNW 22:10:27 15° NW 22:14:01 10° N daylight
30 Sep - 12:49:38 10° NNW 12:53:04 25° NE 12:56:41 10° E daylight
30 Sep - 14:35:17 10° WNW 14:39:34 78° SSW 14:44:29 10° ESE daylight
30 Sep - 16:22:23 10° WSW 16:26:55 46° S 16:32:11 10° ESE daylight
30 Sep - 18:09:16 10° WSW 18:14:26 67° SSE 18:20:33 10° E daylight
30 Sep - 19:56:08 10° WSW 20:01:39 49° NNW 20:08:01 10° NE daylight
30 Sep - 21:45:26 10° WNW 21:48:29 14° NW 21:51:40 10° NNW daylight
01 Oct - 12:27:51 10° NNW 12:31:16 25° NE 12:34:51 10° E daylight
01 Oct - 14:13:34 10° WNW 14:17:47 76° SSW 14:22:33 10° ESE daylight
01 Oct - 16:00:42 10° WSW 16:05:06 45° S 16:10:11 10° ESE daylight
01 Oct - 17:47:32 10° WSW 17:52:34 67° SSE 17:58:30 10° E daylight
01 Oct - 19:34:23 10° WSW 19:39:43 47° NNW 19:45:54 10° NE daylight
01 Oct - 21:23:54 10° WNW 21:26:32 13° NW 21:29:16 10° NNW daylight
02 Oct - 12:06:02 10° NNW 12:09:29 26° NE 12:13:02 10° E daylight
02 Oct - 13:51:51 10° WNW 13:56:01 74° SSW 14:00:38 10° ESE daylight
02 Oct - 15:39:01 10° WSW 15:43:18 44° S 15:48:13 10° ESE daylight
02 Oct - 17:25:50 10° WSW 17:30:43 68° SSE 17:36:28 10° E daylight
02 Oct - 19:12:40 10° WSW 19:17:48 45° NNW 19:23:46 10° NE daylight
02 Oct - 21:02:28 10° WNW 21:04:35 12° NW 21:06:47 10° NNW daylight
03 Oct - 11:44:13 10° NNW 11:47:42 27° NNE 11:51:14 10° E daylight
03 Oct - 13:30:08 10° WNW 13:34:15 72° SSW 13:38:44 10° ESE daylight
03 Oct - 15:17:20 10° WSW 15:21:31 43° S 15:26:15 10° ESE daylight
03 Oct - 17:04:08 10° WSW 17:08:52 68° SSE 17:14:27 10° E daylight
03 Oct - 18:50:58 10° W 18:55:55 43° NNW 19:01:41 10° NE daylight
03 Oct - 20:41:15 10° NW 20:42:40 11° NW 20:44:08 10° NNW daylight
